FW1757 Weather Reports


time (UTC)temp
C
wind
direction
speed
KPH
gust
KPH
rain 1hr
cm
rain 24hr
cm
rain mn
cm
humidity
%
barometer
mb
20260905111052 12 259 0.0 0.0 0.00 0.08 0.00 3 1015.7
20260905110551 12 259 0.0 0.0 0.00 0.08 0.00 4 1015.6
20260905110049 12 259 0.0 0.0 0.00 0.08 0.00 6 1015.6
20260905105548 12 259 0.0 0.0 0.00 0.08 0.00 6 1015.5
20260905105046 13 360 0.0 0.0 0.00 0.08 0.00 8 1015.5
20260905104545 13 259 0.0 0.0 0.00 0.08 0.00 8 1015.6
20260905104043 13 259 0.0 0.0 0.00 0.08 0.00 8 1015.7
20260905103544 13 259 0.0 0.0 0.00 0.08 0.00 8 1015.7
20260905103041 13 259 0.0 0.0 0.00 0.08 0.00 7 1015.5
20260905102542 13 259 0.0 0.0 0.00 0.08 0.00 7 1015.5
20260905102038 13 259 0.0 0.0 0.00 0.08 0.00 6 1015.5
20260905101537 13 259 0.0 0.0 0.00 0.08 0.00 7 1015.5
20260905101034 13 259 0.0 0.0 0.00 0.08 0.00 7 1015.6
20260905100533 13 259 0.0 0.0 0.00 0.08 0.00 7 1015.6
20260905100031 13 259 0.0 0.0 0.00 0.08 0.00 7 1015.6
20260905095530 13 259 0.0 0.0 0.00 0.08 0.00 7 1015.6
20260905095032 13 259 0.0 0.0 0.00 0.08 0.00 7 1015.6
20260905094528 13 259 0.0 0.0 0.00 0.08 0.00 7 1015.7
20260905094026 13 259 0.0 0.0 0.00 0.08 0.00 8 1015.7
20260905093525 13 259 0.0 0.0 0.00 0.08 0.00 8 1015.8
20260905093024 13 259 0.0 0.0 0.00 0.08 0.00 8 1015.7
20260905092526 13 257 0.0 0.0 0.00 0.08 0.00 8 1015.6
20260905092020 13 265 0.0 0.0 0.00 0.08 0.00 7 1015.6
20260905091520 13 265 0.0 0.0 0.00 0.08 0.00 7 1015.5
20260905091018 13 265 0.0 0.0 0.00 0.08 0.00 6 1015.5
20260905090515 13 265 0.0 0.0 0.00 0.08 0.00 7 1015.6
20260905090016 13 256 0.0 0.0 0.00 0.08 0.00 8 1015.5
20260905085513 13 234 0.0 0.0 0.00 0.08 0.00 9 1015.5
20260905085013 13 234 0.0 0.0 0.00 0.08 0.00 10 1015.5
20260905084511 13 233 0.0 0.0 0.00 0.08 0.00 12 1015.4
20260905084013 13 230 0.0 0.0 0.00 0.08 0.00 12 1015.5
20260905083513 13 257 0.0 0.0 0.00 0.08 0.00 14 1015.6
20260905083010 13 257 0.0 0.0 0.00 0.08 0.00 16 1015.5
20260905082509 13 246 0.0 0.0 0.00 0.08 0.00 16 1015.5
20260905082009 13 239 0.0 0.0 0.00 0.08 0.00 17 1015.4
20260905081508 13 243 0.0 0.0 0.00 0.08 0.00 18 1015.3
20260905081007 13 237 0.0 0.0 0.00 0.08 0.00 18 1015.4
20260905080510 13 237 0.0 0.0 0.00 0.08 0.00 18 1015.3
20260905080006 13 237 0.0 0.0 0.00 0.08 0.00 17 1015.3
20260905075506 13 237 0.0 0.0 0.00 0.08 0.00 19 1015.3
20260905075008 13 237 0.0 0.0 0.00 0.08 0.00 18 1015.2
20260905074506 13 237 0.0 0.0 0.00 0.08 0.00 19 1015.2
20260905074004 13 237 0.0 0.0 0.00 0.08 0.00 21 1015.0
20260905073504 13 237 0.0 0.0 0.00 0.08 0.00 24 1015.1
20260905073002 13 237 0.0 0.0 0.00 0.08 0.00 26 1015.0
20260905072502 13 237 0.0 0.0 0.00 0.08 0.00 26 1015.0
20260905072001 13 237 0.0 0.0 0.00 0.08 0.00 28 1014.9
20260905071501 13 237 0.0 0.0 0.00 0.08 0.00 29 1014.9
20260905071100 13 237 0.0 0.0 0.00 0.08 0.00 29 1014.8
20260905070602 13 237 0.0 0.0 0.00 0.08 0.00 29 1014.8
20260905065556 14 237 0.0 0.0 0.00 0.08 0.08 31 1014.7
20260905065055 14 237 0.0 0.0 0.00 0.08 0.08 31 1014.7
20260905064611 14 237 0.0 0.0 0.00 0.08 0.08 32 1014.5
20260905064052 14 258 0.0 0.0 0.00 0.08 0.08 34 1014.6
20260905063550 14 258 0.0 0.0 0.00 0.08 0.08 34 1014.6
20260905063050 14 258 0.0 0.0 0.00 0.08 0.08 36 1014.6
20260905062548 14 258 0.0 0.0 0.00 0.08 0.08 37 1014.5
20260905062047 14 258 0.0 0.0 0.00 0.08 0.08 39 1014.6
20260905061545 14 258 0.0 0.0 0.00 0.08 0.08 43 1014.7
20260905061045 14 258 0.0 0.0 0.00 0.08 0.08 45 1014.6
20260905060542 14 258 0.0 0.0 0.00 0.08 0.08 47 1014.6
20260905060042 14 258 0.0 0.0 0.00 0.08 0.08 47 1014.6
20260905055539 14 258 0.0 0.0 0.00 0.08 0.08 48 1014.6
20260905055038 14 258 0.0 0.0 0.00 0.08 0.08 48 1014.7
20260905054546 14 258 0.0 0.0 0.00 0.08 0.08 47 1014.6
20260905054037 14 258 0.0 0.0 0.00 0.08 0.08 48 1014.6
20260905053534 14 260 0.0 0.0 0.00 0.08 0.08 51 1014.4
20260905053036 14 260 0.0 0.0 0.00 0.08 0.08 53 1014.4
20260905052531 14 260 0.0 0.0 0.00 0.08 0.08 54 1014.4
20260905052029 14 260 0.0 0.0 0.00 0.08 0.08 55 1014.3
20260905051540 14 260 0.0 0.0 0.00 0.08 0.08 55 1014.4
20260905051025 14 260 0.0 0.0 0.00 0.08 0.08 55 1014.5
20260905050527 14 260 0.0 0.0 0.00 0.08 0.08 54 1014.4
20260905050023 13 260 0.0 0.0 0.00 0.08 0.08 54 1014.4
20260905045521 13 260 0.0 0.0 0.00 0.08 0.08 55 1014.3
20260905045020 13 258 0.0 0.0 0.00 0.08 0.08 52 1014.3
20260905044519 13 259 0.0 0.0 0.00 0.08 0.08 51 1014.3
20260905044018 13 209 0.0 0.0 0.00 0.08 0.08 48 1014.3
20260905043516 13 202 0.0 0.0 0.00 0.08 0.08 43 1014.3
20260905043015 13 202 0.0 0.0 0.00 0.08 0.08 41 1014.2
20260905042513 13 360 0.0 0.0 0.00 0.08 0.08 40 1014.2
20260905042012 13 360 0.0 0.0 0.00 0.08 0.08 39 1014.2
20260905041511 13 360 0.0 0.0 0.00 0.08 0.08 37 1014.2
20260905041008 13 360 0.0 0.0 0.00 0.08 0.08 38 1014.2
20260905040507 13 180 0.0 0.0 0.00 0.08 0.08 35 1014.2
20260905040014 13 185 0.0 0.0 0.00 0.08 0.08 35 1014.1
20260905035504 13 360 0.0 0.0 0.00 0.08 0.08 36 1014.2
20260905035004 14 146 0.0 0.0 0.00 0.08 0.08 37 1014.1
20260905034504 14 360 0.0 0.0 0.00 0.08 0.08 40 1014.1
20260905034102 14 360 0.0 0.0 0.00 0.08 0.08 43 1014.0
20260905033559 14 360 0.0 0.0 0.00 0.08 0.08 48 1013.9
20260905033057 14 360 0.0 0.0 0.00 0.08 0.08 52 1014.0
20260905032558 15 360 0.0 0.0 0.00 0.08 0.08 56 1013.9
20260905032054 15 63 0.0 0.0 0.00 0.08 0.08 59 1013.9
20260905031556 15 63 0.0 0.0 0.00 0.08 0.08 60 1013.8
20260905031052 15 63 0.0 0.0 0.00 0.08 0.08 61 1013.7
20260905030550 15 63 0.0 0.0 0.00 0.08 0.08 62 1013.7
20260905025549 16 63 0.0 0.0 0.00 0.08 0.08 64 1013.6
20260905025047 16 261 0.0 0.0 0.00 0.08 0.08 64 1013.6
20260905024550 16 261 0.0 0.0 0.00 0.08 0.08 65 1013.6
20260905024044 16 261 0.0 0.0 0.00 0.08 0.08 65 1013.6
20260905023543 16 261 0.0 0.0 0.00 0.08 0.08 65 1013.6
20260905023042 16 261 0.0 0.0 0.00 0.08 0.08 66 1013.5
20260905022540 17 261 0.0 0.0 0.00 0.08 0.08 65 1013.5
20260905022039 17 264 0.0 0.0 0.00 0.08 0.08 66 1013.4
20260905021541 17 264 0.0 0.0 0.00 0.08 0.08 66 1013.5
20260905021035 17 264 0.0 0.0 0.00 0.08 0.08 66 1013.4
20260905020536 17 264 0.0 0.0 0.00 0.08 0.08 65 1013.4
20260905020032 17 279 0.0 0.0 0.00 0.08 0.08 65 1013.4
20260905015531 17 279 0.0 0.0 0.00 0.08 0.08 65 1013.4
20260905015030 17 276 0.0 0.0 0.00 0.08 0.08 65 1013.3
20260905014531 17 259 0.0 0.0 0.00 0.08 0.08 65 1013.2
20260905014027 17 277 0.0 0.0 0.00 0.08 0.08 65 1013.1
20260905013528 17 240 0.0 0.0 0.00 0.08 0.08 65 1013.2
20260905013025 17 290 0.0 0.0 0.00 0.08 0.08 65 1013.0
20260905012522 17 265 0.0 0.0 0.00 0.08 0.08 65 1013.0
20260905012021 18 286 0.0 0.0 0.00 0.08 0.08 65 1012.9
20260905011519 17 294 0.0 0.0 0.00 0.08 0.08 65 1012.9
20260905011019 17 271 0.0 0.0 0.00 0.08 0.08 64 1012.9
20260905010518 17 290 0.0 0.0 0.00 0.08 0.08 65 1013.0
20260905010016 17 243 0.0 0.0 0.00 0.30 0.08 65 1012.8
20260905005513 17 281 0.0 0.0 0.00 0.30 0.08 65 1012.8
20260905005012 17 292 0.0 0.0 0.00 0.30 0.08 65 1012.9
20260905004510 17 286 0.0 0.0 0.00 0.30 0.08 65 1012.8
20260905004009 17 283 0.0 0.0 0.00 0.30 0.08 65 1012.7
20260905003511 17 296 0.0 0.0 0.00 0.30 0.08 65 1012.6
20260905003009 17 287 0.0 0.0 0.00 0.30 0.08 65 1012.6
20260905002505 18 262 0.0 0.0 0.00 0.30 0.08 65 1012.7
20260905002003 18 281 0.0 0.0 0.00 0.30 0.08 64 1012.7
20260905001502 18 302 0.0 0.0 0.00 0.30 0.08 62 1012.7
20260905001100 18 279 0.0 0.0 0.00 0.30 0.08 62 1012.6
20260905000559 19 269 0.0 0.0 0.00 0.30 0.08 61 1012.6
20260905000103 19 281 0.0 0.0 0.00 0.30 0.08 61 1012.6
20260904235556 20 323 0.0 0.0 0.00 0.33 0.08 60 1012.5
20260904235054 19 303 0.0 0.0 0.00 0.33 0.08 61 1012.4
20260904234558 19 286 0.0 0.0 0.00 0.33 0.08 63 1012.3
20260904234053 19 288 0.0 0.0 0.00 0.33 0.08 61 1012.3
20260904233550 19 285 0.0 0.0 0.00 0.33 0.08 59 1012.3
20260904233051 19 293 0.0 0.0 0.00 0.33 0.08 57 1012.3
20260904232548 19 273 0.0 0.0 0.00 0.33 0.08 57 1012.4
20260904232045 18 260 0.0 0.0 0.00 0.33 0.08 57 1012.4
20260904231544 18 274 0.0 0.0 0.00 0.33 0.08 61 1012.3
20260904231043 18 232 0.0 0.0 0.00 0.33 0.08 62 1012.3
20260904230541 18 304 0.0 0.0 0.00 0.33 0.08 63 1012.4
20260904230040 18 296 0.0 0.0 0.00 0.33 0.08 63 1012.3
20260904225539 18 304 0.0 0.0 0.00 0.33 0.08 63 1012.4
20260904225038 18 292 0.0 0.0 0.00 0.33 0.08 63 1012.4
20260904224535 18 309 0.0 0.0 0.00 0.33 0.08 60 1012.3
20260904224034 18 281 0.0 0.0 0.00 0.33 0.08 60 1012.2
20260904223532 18 273 0.0 0.0 0.00 0.33 0.08 60 1012.3
20260904223043 18 275 0.0 0.0 0.00 0.33 0.08 60 1012.2
20260904222530 18 252 0.0 0.0 0.00 0.33 0.08 59 1012.1
20260904222029 18 284 0.0 0.0 0.00 0.33 0.08 58 1012.0
20260904221542 18 257 0.0 0.0 0.00 0.33 0.08 56 1012.0
20260904221025 18 257 0.0 0.0 0.00 0.33 0.08 55 1012.1
20260904220523 18 265 0.0 0.0 0.00 0.33 0.08 57 1012.2
20260904220022 18 241 0.0 0.0 0.00 0.33 0.08 58 1012.0
20260904215520 18 298 0.0 0.0 0.00 0.33 0.08 57 1012.1
20260904215020 18 277 0.0 0.0 0.00 0.33 0.08 55 1012.2
20260904214519 18 284 0.0 0.0 0.00 0.33 0.08 55 1012.1
20260904214016 19 262 0.0 0.0 0.00 0.33 0.08 56 1012.1
20260904213515 18 258 0.0 0.0 0.00 0.33 0.08 56 1012.1
20260904213016 18 219 0.0 0.0 0.00 0.33 0.08 58 1012.2
20260904212512 18 246 0.0 0.0 0.00 0.33 0.08 58 1012.2
20260904212011 18 305 0.0 0.0 0.03 0.33 0.08 60 1012.1
20260904211509 18 279 0.0 0.0 0.03 0.33 0.08 58 1012.1
20260904211011 18 298 0.0 0.0 0.03 0.33 0.08 59 1012.0
20260904210505 18 299 0.0 0.0 0.03 0.33 0.08 59 1012.1
20260904210004 18 296 0.0 0.0 0.03 0.33 0.08 60 1012.0
20260904205503 18 265 0.0 0.0 0.03 0.33 0.08 61 1012.1
20260904205002 18 281 0.0 0.0 0.03 0.33 0.08 64 1012.0
20260904204600 18 281 0.0 0.0 0.03 0.33 0.08 63 1012.0
20260904204059 17 273 0.0 0.0 0.03 0.33 0.08 63 1012.0
20260904203557 17 273 0.0 0.0 0.03 0.33 0.08 64 1012.1
20260904203056 17 273 0.0 0.0 0.03 0.33 0.08 63 1012.0
20260904202555 17 273 0.0 0.0 0.03 0.33 0.08 65 1012.2
20260904202053 17 273 0.0 0.0 0.00 0.30 0.05 64 1012.2
20260904201554 17 273 0.0 0.0 0.00 0.30 0.05 66 1012.3
20260904201050 17 272 0.0 0.0 0.00 0.30 0.05 67 1012.3
20260904200548 16 273 0.0 0.0 0.00 0.30 0.05 66 1012.4
20260904200108 16 273 0.0 0.0 0.00 0.30 0.05 66 1012.4
20260904195545 16 271 0.0 0.0 0.00 0.30 0.05 66 1012.4
20260904195047 16 282 0.0 0.0 0.00 0.30 0.05 66 1012.5
20260904194622 16 282 0.0 0.0 0.00 0.30 0.05 65 1012.5
20260904194041 16 281 0.0 0.0 0.00 0.30 0.05 66 1012.6
20260904193540 16 281 0.0 0.0 0.00 0.30 0.05 66 1012.6
20260904193043 16 281 0.0 0.0 0.00 0.30 0.05 65 1012.7
20260904192536 16 281 0.0 0.0 0.00 0.30 0.05 62 1012.8
20260904192036 16 281 0.0 0.0 0.00 0.30 0.05 62 1012.8
20260904191535 16 279 0.0 0.0 0.00 0.30 0.05 59 1012.7
20260904191032 16 282 0.0 0.0 0.00 0.30 0.05 55 1012.7
20260904190531 15 281 0.0 0.0 0.00 0.30 0.05 56 1012.8
20260904190029 15 275 0.0 0.0 0.00 0.30 0.05 57 1012.9
20260904185528 15 281 0.0 0.0 0.00 0.30 0.05 57 1013.0
20260904185026 15 274 0.0 0.0 0.00 0.30 0.05 55 1012.9
20260904184525 15 308 0.0 0.0 0.00 0.30 0.05 51 1012.9
20260904184024 15 309 0.0 0.0 0.00 0.30 0.05 48 1012.9
20260904183523 15 248 0.0 0.0 0.00 0.30 0.05 44 1012.9
20260904183021 15 248 0.0 0.0 0.00 0.30 0.05 48 1013.0
20260904182519 15 248 0.0 0.0 0.00 0.30 0.05 43 1013.0
20260904182018 14 248 0.0 0.0 0.00 0.30 0.05 45 1012.9
20260904181517 14 246 0.0 0.0 0.00 0.30 0.05 45 1012.8
20260904181015 14 244 0.0 0.0 0.00 0.30 0.05 37 1012.9
20260904180515 14 244 0.0 0.0 0.00 0.30 0.05 28 1012.9
20260904180012 14 244 0.0 0.0 0.00 0.30 0.05 29 1012.9
20260904175510 14 244 0.0 0.0 0.00 0.30 0.05 27 1012.8
20260904175009 14 244 0.0 0.0 0.00 0.30 0.05 35 1013.0
20260904174510 14 244 0.0 0.0 0.00 0.30 0.05 35 1012.9
20260904174007 14 244 0.0 0.0 0.00 0.30 0.05 24 1012.8
20260904173506 13 244 0.0 0.0 0.00 0.30 0.05 24 1012.9
20260904173005 13 244 0.0 0.0 0.00 0.30 0.05 19 1012.8
20260904172502 13 238 0.0 0.0 0.00 0.30 0.05 11 1012.9
20260904172001 13 238 0.0 0.0 0.00 0.30 0.05 1 1012.9
20260904171600 13 236 0.0 0.0 0.00 0.30 0.05 2 1012.8
20260904171059 12 236 0.0 0.0 0.00 0.30 0.05 4 1012.9
20260904170558 12 236 0.0 0.0 0.00 0.30 0.05 1 1012.9
20260904170056 12 236 0.0 0.0 0.00 0.30 0.05 1 1012.8
20260904165553 11 230 0.0 0.0 0.00 0.30 0.05 1 1012.9
20260904165052 11 230 0.0 0.0 0.00 0.30 0.05 1 1012.9
20260904164555 11 230 0.0 0.0 0.00 0.30 0.05 1 1012.8
20260904164052 11 230 0.0 0.0 0.00 0.30 0.05 1 1012.8
20260904163548 11 230 0.0 0.0 0.00 0.30 0.05 1 1012.7
20260904163046 11 230 0.0 0.0 0.00 0.30 0.05 1 1012.8
20260904162545 11 229 0.0 0.0 0.00 0.30 0.05 1 1012.8
20260904162043 11 230 0.0 0.0 0.00 0.30 0.05 1 1012.8
20260904161546 11 230 0.0 0.0 0.00 0.30 0.05 1 1012.8
20260904161042 11 230 0.0 0.0 0.00 0.30 0.05 1 1012.8
20260904160541 11 230 0.0 0.0 0.00 0.30 0.05 1 1012.9
20260904160040 11 229 0.0 0.0 0.00 0.30 0.05 1 1012.8
20260904155536 11 229 0.0 0.0 0.00 0.30 0.05 1 1012.8
20260904155034 11 229 0.0 0.0 0.00 0.30 0.05 1 1012.8
20260904154533 11 229 0.0 0.0 0.00 0.30 0.05 1 1012.9
20260904154032 11 229 0.0 0.0 0.00 0.30 0.05 1 1012.7
20260904153531 11 229 0.0 0.0 0.00 0.30 0.05 1 1012.7
20260904153029 10 229 0.0 0.0 0.00 0.30 0.05 1 1012.5
20260904152527 10 229 0.0 0.0 0.00 0.30 0.05 1 1012.6
20260904152026 10 229 0.0 0.0 0.00 0.30 0.05 1 1012.5
20260904151536 10 230 0.0 0.0 0.00 0.30 0.05 1 1012.4
20260904151024 10 230 0.0 0.0 0.00 0.30 0.05 1 1012.4
20260904150522 10 229 0.0 0.0 0.00 0.30 0.05 1 1012.5
20260904150025 10 229 0.0 0.0 0.00 0.30 0.05 1 1012.4
20260904145519 10 229 0.0 0.0 0.00 0.30 0.05 1 1012.4
20260904145018 10 229 0.0 0.0 0.00 0.30 0.05 1 1012.4
20260904144516 10 229 0.0 0.0 0.00 0.30 0.05 1 1012.3
20260904144014 10 229 0.0 0.0 0.00 0.30 0.05 1 1012.3
20260904143515 10 229 0.0 0.0 0.00 0.30 0.05 1 1012.3
20260904143012 10 226 0.0 0.0 0.00 0.30 0.05 1 1012.2
20260904142514 10 360 0.0 0.0 0.00 0.30 0.05 1 1012.1
20260904142009 10 360 0.0 0.0 0.00 0.30 0.05 1 1012.2
20260904141508 10 360 0.0 0.0 0.00 0.30 0.05 1 1012.2
20260904141010 10 360 0.0 0.0 0.00 0.30 0.05 1 1012.0
20260904140506 10 360 0.0 0.0 0.00 0.30 0.05 1 1012.0
20260904140004 10 360 0.0 0.0 0.00 0.30 0.05 1 1011.8
20260904135503 10 360 0.0 0.0 0.00 0.30 0.05 1 1011.7
20260904135101 10 360 0.0 0.0 0.00 0.30 0.05 1 1011.7
20260904134616 10 360 0.0 0.0 0.00 0.30 0.05 1 1011.7
20260904134059 10 360 0.0 0.0 0.00 0.30 0.05 1 1011.7
20260904133556 10 360 0.0 0.0 0.00 0.30 0.05 1 1011.7
20260904133108 10 360 0.0 0.0 0.00 0.30 0.05 1 1011.5
20260904132555 10 360 0.0 0.0 0.00 0.30 0.05 1 1011.5
20260904132052 10 360 0.0 0.0 0.00 0.30 0.05 1 1011.4
20260904131605 10 360 0.0 0.0 0.03 0.30 0.05 1 1011.3
20260904131049 10 360 0.0 0.0 0.03 0.30 0.05 1 1011.3
20260904130547 10 360 0.0 0.0 0.03 0.30 0.05 1 1011.3
20260904130046 10 360 0.0 0.0 0.03 0.30 0.05 1 1011.2
20260904125549 10 360 0.0 0.0 0.03 0.30 0.05 1 1011.2
20260904125047 10 360 0.0 0.0 0.03 0.30 0.05 1 1011.2
20260904124542 10 360 0.0 0.0 0.03 0.30 0.05 1 1011.0
20260904124040 10 229 0.0 0.0 0.03 0.30 0.05 1 1011.1
20260904123539 10 229 0.0 0.0 0.03 0.30 0.05 1 1011.1
20260904123038 10 229 0.0 0.0 0.03 0.30 0.05 1 1011.1
20260904122537 10 229 0.0 0.0 0.05 0.30 0.05 1 1011.1
20260904122035 10 229 0.0 0.0 0.05 0.30 0.05 1 1011.0
20260904121537 10 229 0.0 0.0 0.03 0.28 0.03 1 1011.1
20260904121031 11 229 0.0 0.0 0.03 0.28 0.03 1 1011.0
20260904120530 11 229 0.0 0.0 0.03 0.28 0.03 1 1011.0
20260904120032 11 229 0.0 0.0 0.03 0.28 0.03 1 1011.0
20260904115528 11 229 0.0 0.0 0.03 0.28 0.03 1 1010.9
20260904115025 11 229 0.0 0.0 0.03 0.28 0.03 1 1010.8
20260904114524 11 229 0.0 0.0 0.03 0.28 0.03 1 1010.9
20260904114024 11 229 0.0 0.0 0.03 0.28 0.03 1 1010.8
20260904113522 11 229 0.0 0.0 0.03 0.28 0.03 1 1010.8
20260904113031 11 229 0.0 0.0 0.03 0.28 0.03 1 1010.8
20260904112519 11 229 0.0 0.0 0.00 0.25 0.00 1 1010.7
20260904112018 11 229 0.0 0.0 0.00 0.25 0.00 1 1010.6